Terug naar catalogus

STARLINK-38097

ActiefCommunicatieSSO
NORAD 100163·PAYLOAD·🇺🇸 United States

Gelanceerd Jul 25, 2026 vanaf Vandenberg Space Force Base

Loading…

Volgende Passages (komende 24 uur)

TLE

VersSource: Space-Track

Epoch: Sep 14, 2026, 21:45 UTC

1 A0163U 26171R   26257.90660212  .00019111  00000-0  52980-3 0  9995
2 A0163  97.2835 290.5010 0001005  93.3346 266.8014 15.36985051  8049

Volg STARLINK-38097 in realtime met AllMySat

Download on the App Store